Weather History for Punta Cana, Dominican Republic

Change the Weather History Date:

Thursday, August 1, 2013

  Actual Average Record
Temperature  
Mean Temperature 82 °F -  
Max Temperature 89 °F 86 °F 91 °F (2007)
Min Temperature 75 °F 77 °F 73 °F (2008)
Cooling Degree Days 17    
Growing Degree Days 32 (Base 50)    
Moisture  
Dew Point 76 °F    
Average Humidity 79    
Maximum Humidity 100    
Minimum Humidity 57    
Precipitation  
Precipitation 0.00 in - - ()
Sea Level Pressure  
Sea Level Pressure 30.01 in    
Wind  
Wind Speed 5 mph ()    
Max Wind Speed 16 mph    
Max Gust Speed -    
Visibility 6.9 miles    
Events      
Averages and records for this station are not official NWS values.
T = Trace of Precipitation, MM = Missing Value Source: Averaged Metar Reports

Daily Weather History Graph

Daily Weather History Graph

Search for Another Location

Airport:

Trip Planner

Search our weather history database for the weather conditions in past years. The results will help you decide how hot, cold, wet, or windy it might be!

Date:

Astronomy

Aug. 01, 2013 Rise Set
Actual Time 6:11 AM AST 7:08 PM AST
Civil Twilight 5:47 AM AST 7:31 PM AST
Nautical Twilight 5:20 AM AST 7:58 PM AST
Astronomical Twilight 4:52 AM AST 8:26 PM AST
Moon 1:48 AM AST (8/1) 3:08 PM AST (8/1)
Length of Visible Light 13h 43m
Length of Day
12h 57m
Waning Crescent, 23% of the Moon is Illuminated
Aug 1
Waning Crescent
Aug 6
New
Aug 14
First Quarter
Aug 20
Full
Aug 28
Last Quarter

Hourly Weather History & Observations

Time (AST) Temp. Heat Index Dew Point Humidity Pressure Visibility Wind Dir Wind Speed Gust Speed Precip Events Conditions
12:00 AM 80.6 °F 86.2 °F 75.2 °F 84% 30.01 in 6.2 mi East 5.8 mph - N/A   Partly Cloudy
1:00 AM 80.6 °F 86.2 °F 75.2 °F 84% 30.01 in 6.2 mi East 4.6 mph - N/A   Partly Cloudy
2:00 AM 80 °F - 75 °F 81% 29.99 in 10 mi East 4.5 mph - -   Partly Cloudy
2:00 AM 80.6 °F 86.2 °F 75.2 °F 84% 29.98 in 6.2 mi ESE 4.6 mph - N/A   Scattered Clouds
3:00 AM 77.0 °F - 75.2 °F 94% 29.98 in 6.2 mi SW 4.6 mph - N/A   Mostly Cloudy
4:00 AM 77.0 °F - 75.2 °F 94% 29.98 in 6.2 mi SW 4.6 mph - N/A   Mostly Cloudy
5:00 AM 76 °F - 75 °F 94% 29.98 in 10 mi Calm Calm - -   Partly Cloudy
5:00 AM 77.0 °F - 75.2 °F 94% 29.98 in 6.2 mi Calm Calm - N/A   Scattered Clouds
6:00 AM 75.2 °F - 73.4 °F 94% 29.98 in 6.2 mi Calm Calm - N/A   Scattered Clouds
7:00 AM 75.2 °F - 75.2 °F 100% 30.01 in 6.2 mi Calm Calm - N/A   Scattered Clouds
8:00 AM 81 °F - 77 °F 85% 30.02 in 10 mi Calm Calm - -   Scattered Clouds
8:00 AM 80.6 °F 87.1 °F 77.0 °F 89% 30.01 in 6.2 mi Calm Calm - N/A   Partly Cloudy
9:00 AM 86.0 °F 96.9 °F 77.0 °F 74% 30.04 in 6.2 mi SE 6.9 mph - N/A   Scattered Clouds
10:00 AM 87.8 °F 97.6 °F 75.2 °F 66% 30.04 in 6.2 mi SSE 16.1 mph - N/A   Scattered Clouds
11:00 AM 88 °F - 75 °F 57% 30.04 in 10 mi South 8.9 mph - -   Scattered Clouds
11:00 AM 87.8 °F 97.6 °F 75.2 °F 66% 30.04 in 6.2 mi South 8.1 mph - N/A   Partly Cloudy
12:00 PM 87.8 °F 97.6 °F 75.2 °F 66% 30.04 in 6.2 mi SE 9.2 mph - N/A   Partly Cloudy
1:00 PM 89.6 °F 99.8 °F 75.2 °F 62% 30.01 in 6.2 mi SE 11.5 mph - N/A   Partly Cloudy
2:00 PM 89.6 °F 99.8 °F 75.2 °F 62% 30.01 in 6.2 mi ESE 11.5 mph - N/A   Partly Cloudy
3:00 PM 87.8 °F 97.6 °F 75.2 °F 66% 30.01 in 6.2 mi SE 9.2 mph - N/A   Scattered Clouds
4:00 PM 87.8 °F 97.6 °F 75.2 °F 66% 30.01 in 6.2 mi SE 9.2 mph - N/A   Scattered Clouds
5:00 PM 87 °F - 75 °F 60% 29.99 in 10 mi SSE 13.4 mph - -   Partly Cloudy
5:00 PM 87.8 °F 97.6 °F 75.2 °F 66% 29.95 in 6.2 mi SSE 11.5 mph - N/A   Scattered Clouds
6:00 PM 84.2 °F 92.3 °F 75.2 °F 74% 29.98 in 6.2 mi SSE 10.4 mph - N/A   Partly Cloudy
7:00 PM 82.4 °F 90.9 °F 77.0 °F 84% 29.98 in 6.2 mi SSE 6.9 mph - N/A   Scattered Clouds
8:00 PM 82.4 °F 90.9 °F 77.0 °F 84% 30.01 in 6.2 mi SE 6.9 mph - N/A   Scattered Clouds
9:00 PM 82.4 °F 90.9 °F 77.0 °F 84% 30.04 in 6.2 mi ESE 9.2 mph - N/A   Scattered Clouds
10:00 PM 82.4 °F 90.9 °F 77.0 °F 84% 30.04 in 6.2 mi ESE 5.8 mph - N/A   Scattered Clouds
11:00 PM 82.4 °F 90.9 °F 77.0 °F 84% 30.04 in 6.2 mi ESE 11.5 mph - N/A   Scattered Clouds